Cando, ND

1:02 PM CDT on May 20, 2018 (GMT -0500)
Cando

Weather History for K9D7 - April, 2013

Change the Weather History Date:

Thursday, April 4, 2013

  Actual Average (KDVL) Record (KDVL)
Temperature  
Mean Temperature 20 °F -  
Max Temperature 26 °F 45 °F 71 °F (1991)
Min Temperature 14 °F 23 °F 0 °F (2002)
Degree Days  
Heating Degree Days 44    
Moisture  
Dew Point 19 °F    
Average Humidity 87    
Maximum Humidity 100    
Minimum Humidity 69    
Precipitation  
Precipitation 0.00 in - - ()
Sea Level Pressure  
Sea Level Pressure 30.20 in    
Wind  
Wind Speed 10 mph (North)    
Max Wind Speed 16 mph    
Max Gust Speed -    
Visibility 10 miles    
Events      
Averages and records for this station are not official NWS values.
T = Trace of Precipitation, MM = Missing Value Source: NWS Daily Summary

Daily Weather History Graph

Daily Weather History Graph

Search for Another Location

Airport or City:

Astronomy

Apr. 04, 2013 Rise Set
Actual Time 7:08 AM CDT 8:12 PM CDT
Civil Twilight 6:36 AM CDT 8:44 PM CDT
Nautical Twilight 5:57 AM CDT 9:23 PM CDT
Astronomical Twilight 5:16 AM CDT 10:04 PM CDT
Moon 4:02 AM CDT (4/4) 2:06 PM CDT (4/4)
Length of Visible Light 14h 08m
Length of Day
13h 04m
Waning Crescent, 33% of the Moon is Illuminated
Apr 4
Waning Crescent
Apr 10
New
Apr 18
First Quarter
Apr 25
Full
May 2
Last Quarter

Hourly Weather History & Observations

Time (CDT) Temp. Windchill Dew Point Humidity Pressure Visibility Wind Dir Wind Speed Gust Speed Precip Events Conditions
12:15 AM 26.6 °F 15.7 °F 26.6 °F 100% 30.05 in 10.0 mi WNW 12.7 mph - N/A   Clear
12:35 AM 26.6 °F 15.7 °F 24.8 °F 93% 30.06 in 10.0 mi WNW 12.7 mph - N/A   Clear
12:55 AM 26.6 °F 16.8 °F 24.8 °F 93% 30.06 in 10.0 mi WNW 10.4 mph - N/A   Clear
1:15 AM 26.6 °F 15.7 °F 24.8 °F 93% 30.06 in 10.0 mi NW 12.7 mph - N/A   Clear
1:35 AM 24.8 °F 14.0 °F 24.8 °F 100% 30.07 in 10.0 mi NW 11.5 mph - N/A   Clear
1:55 AM 24.8 °F 15.3 °F 23.0 °F 93% 30.07 in 10.0 mi WNW 9.2 mph - N/A   Clear
2:15 AM 23.0 °F 11.1 °F 23.0 °F 100% 30.07 in 10.0 mi WNW 12.7 mph - N/A   Clear
2:35 AM 23.0 °F 11.7 °F 21.2 °F 93% 30.08 in 10.0 mi WNW 11.5 mph - N/A   Clear
2:55 AM 21.2 °F 9.5 °F 19.4 °F 93% 30.08 in 10.0 mi WNW 11.5 mph - N/A   Clear
3:15 AM 19.4 °F 6.6 °F 19.4 °F 100% 30.08 in 10.0 mi WNW 12.7 mph - N/A   Clear
3:35 AM 21.2 °F 8.3 °F 19.4 °F 93% 30.09 in 10.0 mi NW 13.8 mph - N/A   Clear
3:55 AM 23.0 °F 11.1 °F 19.4 °F 86% 30.09 in 10.0 mi NW 12.7 mph - N/A   Clear
4:15 AM 21.2 °F 10.1 °F 19.4 °F 93% 30.10 in 10.0 mi NW 10.4 mph - N/A   Clear
4:35 AM 19.4 °F 8.6 °F 17.6 °F 93% 30.11 in 10.0 mi NW 9.2 mph - N/A   Clear
4:55 AM 19.4 °F 7.2 °F 15.8 °F 86% 30.11 in 10.0 mi NNW 11.5 mph - N/A   Clear
5:15 AM 19.4 °F 7.2 °F 17.6 °F 93% 30.12 in 10.0 mi NNW 11.5 mph - N/A   Clear
5:35 AM 23.0 °F 12.4 °F 19.4 °F 86% 30.13 in 10.0 mi NW 10.4 mph - N/A   Clear
5:55 AM 17.6 °F 5.7 °F 15.8 °F 93% 30.14 in 10.0 mi WNW 10.4 mph - N/A   Clear
6:15 AM 15.8 °F 4.2 °F 14.0 °F 93% 30.16 in 10.0 mi WNW 9.2 mph - N/A   Clear
6:35 AM 17.6 °F 5.0 °F 15.8 °F 93% 30.17 in 10.0 mi WNW 11.5 mph - N/A   Scattered Clouds
6:55 AM 19.4 °F 7.2 °F 15.8 °F 86% 30.16 in 10.0 mi NW 11.5 mph - N/A   Mostly Cloudy
7:15 AM 17.6 °F 7.3 °F 15.8 °F 93% 30.17 in 10.0 mi NW 8.1 mph - N/A   Partly Cloudy
7:35 AM 17.6 °F 8.2 °F 15.8 °F 93% 30.18 in 10.0 mi NNW 6.9 mph - N/A   Clear
7:55 AM 15.8 °F 6.1 °F 14.0 °F 93% 30.18 in 10.0 mi NW 6.9 mph - N/A   Clear
8:15 AM 17.6 °F 9.3 °F 15.8 °F 93% 30.20 in 10.0 mi NW 5.8 mph - N/A   Clear
8:35 AM 17.6 °F 9.3 °F 14.0 °F 86% 30.21 in 10.0 mi NW 5.8 mph - N/A   Clear
8:55 AM 17.6 °F 10.7 °F 15.8 °F 93% 30.22 in 10.0 mi NW 4.6 mph - N/A   Clear
9:15 AM 19.4 °F 11.5 °F 15.8 °F 86% 30.22 in 10.0 mi NW 5.8 mph - N/A   Clear
9:35 AM 19.4 °F 11.5 °F 17.6 °F 93% 30.22 in 10.0 mi NW 5.8 mph - N/A   Clear
9:55 AM 21.2 °F 14.9 °F 17.6 °F 86% 30.23 in 10.0 mi NNW 4.6 mph - N/A   Clear
10:15 AM 24.8 °F 15.3 °F 21.2 °F 86% 30.23 in 10.0 mi North 9.2 mph - N/A   Clear
10:35 AM 24.8 °F 13.4 °F 23.0 °F 93% 30.24 in 10.0 mi North 12.7 mph - N/A   Clear
10:55 AM 24.8 °F 14.6 °F 23.0 °F 93% 30.24 in 10.0 mi NNE 10.4 mph - N/A   Clear
11:35 AM 26.6 °F 14.3 °F 23.0 °F 86% 30.25 in 10.0 mi NNE 16.1 mph - N/A   Mostly Cloudy
11:55 AM 26.6 °F 15.2 °F 23.0 °F 86% 30.26 in 10.0 mi NNE 13.8 mph - N/A   Overcast
12:15 PM 26.6 °F 15.2 °F 23.0 °F 86% 30.26 in 10.0 mi NNE 13.8 mph - N/A   Overcast
12:35 PM 26.6 °F 14.7 °F 23.0 °F 86% 30.26 in 10.0 mi NNE 15.0 mph - N/A   Partly Cloudy
12:55 PM 26.6 °F 16.2 °F 23.0 °F 86% 30.27 in 10.0 mi NNE 11.5 mph - N/A   Clear
1:15 PM 26.6 °F 15.7 °F 23.0 °F 86% 30.27 in 10.0 mi NNE 12.7 mph - N/A   Clear
1:35 PM 26.6 °F 15.2 °F 23.0 °F 86% 30.27 in 10.0 mi NNE 13.8 mph - N/A   Clear
1:55 PM 26.6 °F 15.2 °F 21.2 °F 80% 30.26 in 10.0 mi NNE 13.8 mph - N/A   Clear
2:15 PM 26.6 °F 14.7 °F 21.2 °F 80% 30.26 in 10.0 mi NNE 15.0 mph - N/A   Clear
2:35 PM 26.6 °F 14.7 °F 21.2 °F 80% 30.26 in 10.0 mi NNE 15.0 mph - N/A   Clear
2:55 PM 26.6 °F 15.7 °F 19.4 °F 74% 30.25 in 10.0 mi NNE 12.7 mph - N/A   Clear
3:15 PM 26.6 °F 16.8 °F 19.4 °F 74% 30.25 in 10.0 mi NNE 10.4 mph - N/A   Clear
3:35 PM 26.6 °F 16.8 °F 19.4 °F 74% 30.25 in 10.0 mi NNE 10.4 mph - N/A   Clear
3:55 PM 26.6 °F 16.8 °F 19.4 °F 74% 30.26 in 10.0 mi North 10.4 mph - N/A   Clear
4:15 PM 26.6 °F 18.2 °F 19.4 °F 74% 30.26 in 10.0 mi North 8.1 mph - N/A   Clear
4:35 PM 26.6 °F 18.2 °F 19.4 °F 74% 30.26 in 10.0 mi North 8.1 mph - N/A   Clear
4:55 PM 26.6 °F 17.5 °F 19.4 °F 74% 30.25 in 10.0 mi North 9.2 mph - N/A   Clear
5:15 PM 26.6 °F 17.5 °F 19.4 °F 74% 30.26 in 10.0 mi North 9.2 mph - N/A   Clear
5:35 PM 26.6 °F 17.5 °F 19.4 °F 74% 30.25 in 10.0 mi NNE 9.2 mph - N/A   Clear
5:55 PM 26.6 °F 19.1 °F 19.4 °F 74% 30.25 in 10.0 mi NNE 6.9 mph - N/A   Clear
6:15 PM 26.6 °F 19.1 °F 19.4 °F 74% 30.25 in 10.0 mi NNE 6.9 mph - N/A   Clear
6:35 PM 26.6 °F 21.2 °F 19.4 °F 74% 30.26 in 10.0 mi NNE 4.6 mph - N/A   Clear
6:55 PM 26.6 °F 20.0 °F 17.6 °F 69% 30.26 in 10.0 mi NE 5.8 mph - N/A   Clear
7:15 PM 24.8 °F 16.9 °F 17.6 °F 74% 30.25 in 10.0 mi ENE 6.9 mph - N/A   Clear
7:35 PM 24.8 °F 16.1 °F 17.6 °F 74% 30.25 in 10.0 mi ENE 8.1 mph - N/A   Clear
7:55 PM 23.0 °F 18.4 °F 17.6 °F 80% 30.25 in 10.0 mi East 3.5 mph - N/A   Clear
8:15 PM 21.2 °F - 15.8 °F 80% 30.25 in 10.0 mi Calm Calm - N/A   Clear
8:35 PM 21.2 °F - 17.6 °F 86% 30.25 in 10.0 mi Calm Calm - N/A   Clear
8:55 PM 19.4 °F - 15.8 °F 86% 30.25 in 10.0 mi Calm Calm - N/A   Clear
9:15 PM 17.6 °F - 15.8 °F 93% 30.24 in 10.0 mi Calm Calm - N/A   Clear
9:35 PM 19.4 °F - 15.8 °F 86% 30.24 in 10.0 mi Calm Calm - N/A   Clear
9:55 PM 19.4 °F - 15.8 °F 86% 30.25 in 10.0 mi Calm Calm - N/A   Clear
10:15 PM 15.8 °F 10.2 °F 15.8 °F 100% 30.25 in 10.0 mi SE 3.5 mph - N/A   Clear
10:35 PM 15.8 °F 10.2 °F 14.0 °F 93% 30.24 in 10.0 mi ESE 3.5 mph - N/A   Clear
10:55 PM 15.8 °F - 15.8 °F 100% 30.24 in 10.0 mi Calm Calm - N/A   Clear
11:15 PM 15.8 °F 10.2 °F 15.8 °F 100% 30.24 in 10.0 mi ESE 3.5 mph - N/A   Clear
11:35 PM 15.8 °F - 14.0 °F 93% 30.24 in 10.0 mi Calm Calm - N/A   Clear
11:55 PM 14.0 °F - 14.0 °F 100% 30.24 in 10.0 mi Calm Calm - N/A   Clear